World > North America > United States > Texas

Elkhart, Texas Regional Weather

Lat: 31.63N, Lon: 95.58W
Wx Zone: TXZ148Web Search
Elkhart Weather Warning NWS WEATHER ALERT FOR THE ELKHART, TX AREA - Issued: 431 AM CDT Mon Apr 12 2021 Elkhart Weather Warning  

Ads allow us to feed your daily addiction for the world's greatest weather information. We're determined to offer quality sponsors, in the least annoying way possible.

Feedback


°F Click to change Elkhart hourly weather to Imperial units.Click to change Elkhart hourly weather to Metric units. °C
Elkhart Weather Map
UTC Time: 4/12/2021, 15:34
Your Time:

Elkhart, TX Regional Weather

Expires:202104121600;;441102
ASUS44 KFWD 121515
RWRTX 
NORTH TEXAS HOURLY WEATHER ROUNDUP
NATIONAL WEATHER SERVICE FORT WORTH TX
1000 AM CDT MON APR 12 2021

NOTE: "FAIR" INDICATES FEW OR NO CLOUDS BELOW 12,000 FEET WITH NO
SIGNIFICANT WEATHER AND/OR OBSTRUCTIONS TO VISIBILITY.


TXZ095>097-106>112-122>126-135>138-148>153-164>167-121600-
EAST TEXAS
  
CITY           SKY/WX    TMP DP  RH WIND       PRES   REMARKS
PARIS          FAIR      70  49  47 S9        29.86R                  
SULPHUR SPRNGS FAIR      69  49  49 CALM      29.87S                  
MOUNT PLEASANT FAIR      67  53  62 S5        29.86S                  
GILMER         FAIR      70  50  47 SE5       29.87R                  
MINEOLA        FAIR      68  52  56 S3        29.87R                  
TYLER          FAIR      70  50  49 S9        29.85R                  
LONGVIEW       FAIR      73  51  46 S8        29.84S                  
MARSHALL       FAIR      70  55  59 S6        29.88S                  
ATHENS         FAIR      68  52  56 S7        29.83S                  
PALESTINE      FAIR      70  54  56 S10       29.85R                  
JACKSONVILLE   FAIR      71  54  55 S7        29.88R                  
HENDERSON      FAIR      71  50  48 S8        29.87S                  
CENTER         FAIR      70  55  60 SE5       29.88R                  
NACOGDOCHES    FAIR      70  57  63 S5        29.87R                  
LUFKIN         FAIR      70  58  65 SE8       29.85R                  
$$

SUPPLEMENTAL OBSERVATIONS (NWS FORT WORTH AREA)
  
CITY           SKY/WX    TMP DP  RH WIND       PRES   REMARKS
CADDO GRASSLND   N/A     70  52  52 S8          N/A                   
LBJ GRASSLAND    N/A     66  54  63 SE3         N/A                   
POSSUM KINGDOM   N/A     66  50  55 N2          N/A                   
GRANBURY         N/A     66  57  72 SE8         N/A                   
COMANCHE         N/A     75  59  57 NW5G14      N/A                   
MCGREGOR         N/A     72  64  78 S18         N/A                   
TEMPLE           N/A     66  63  88 S7          N/A                   
LAKE LIMESTONE   N/A     72  59  64 S9          N/A                   
PALESTINE        N/A     73  54  49 S6          N/A                   
$$

SUPPLEMENTAL OBSERVATIONS (NWS NORMAN AREA)
  
CITY           SKY/WX    TMP DP  RH WIND       PRES   REMARKS
GOODLETT         N/A     55  29  38 NE25      29.94S                  
ODELL            N/A     57  32  38 N24       29.93S                  
CROWELL          N/A     56  32  39 N23       29.93R                  
KNOX CITY        N/A     57  35  44 N17       29.91R                  
SEYMOUR          N/A     57  38  48 N20       29.89R                  
MILLERS CREEK    N/A     57  37  47 N17G26      N/A                   
$$

SUPPLEMENTAL OBSERVATIONS (NWS SAN ANGELO AREA)
  
CITY           SKY/WX    TMP DP  RH WIND       PRES   REMARKS
WEINERT          N/A     57  38  48 N20       29.90R                  
HASKELL          N/A     56  39  52 N20       29.89R                  
THROCKMORTON     N/A     58  41  54 NE10      29.86R                  
STAMFORD         N/A     57  41  54 N16       29.89R                  
CLYDE            N/A     58  45  62 NW8       29.88R                  
HAMBY            N/A     57  43  58 N8          N/A                   
IVIE RESERVOIR   N/A     75  59  57 NW9         N/A                   
COLORADO BEND    N/A     72  61  68 S9G17       N/A                   
$$

SUPPLEMENTAL OBSERVATIONS (NWS SHREVEPORT AREA)
  
CITY           SKY/WX    TMP DP  RH WIND       PRES   REMARKS
TEXARKANA        N/A     73  54  49 S2          N/A                   
LUFKIN           N/A     73  57  56 MISG        N/A                   
N SABINE NF      N/A     73  55  53 MISG        N/A                   
$$

SUPPLEMENTAL OBSERVATIONS ARE A COLLECTION OF AUTOMATED INSTRUMENTS
THAT ARE MAINTAINED BY A VARIETY OF FEDERAL AND STATE AGENCIES. 
CERTAIN ELEMENTS...SUCH AS HUMIDITY VALUES AND SUSTAINED WIND 
SPEEDS...MAY BE APPROXIMATED.

  

SKY/WX - Weather  TMP - Temperature  DP - Dew Point  RH - Relative Humidity
WIND - Wind Direction/Speed PRES - Barometric Pressure VSB - Visibility
WCI - Wind Chill Index E13G22 Wind - East Wind 13 mph/Gusts of 22 mph